{"data":{"norad_id":69152,"intl_designator":"2026-111E","name":"STARLINK-37317","alt_names":[],"object_type":"PAYLOAD","status":"ACTIVE","operator":null,"country":"US","launch_date":"2026-05-21","launch_site_code":"AFETR","launch_vehicle":null,"mission":null,"orbit_class":"UNKNOWN","rcs_meters":null,"size_class":null,"mass_kg":null,"dimensions":null,"purposes":["comms"],"wikipedia_slug":null,"has_3d_model":false,"image_url":null,"decayed_at":null,"tle_current":{"epoch":"2026-09-19T21:41:12.183936Z","epoch_age_seconds":74653,"freshness":"FRESH","line1":"1 69152U 26111E   26262.90361324  .00012707  00000+0  38647-3 0  9997","line2":"2 69152  53.1588  68.7603 0001125  89.2509 270.8622 15.34408976 18808","mean_motion":15.34408976,"eccentricity":0.0001125,"inclination_deg":53.1588,"raan_deg":68.7603,"arg_perigee_deg":89.2509,"mean_anomaly_deg":270.8622,"bstar":0.00038647,"rev_number":1880,"period_min":93.84720908984,"perigee_km":461.90697024785,"apogee_km":463.44615329925,"semimajor_km":6840.8135617736,"source":"CELESTRAK","updated_at":"2026-09-20T09:00:44.090155Z"}}}